[[{"header":{"parameterUnit":"m.s-1","parameterCategory":1,"la1":30.2991,"la2":30.254,"lo1":-89.0895,"lo2":-89.0444,"dy":0.0017,"dx":0.0017,"nx":28,"ny":28,"refTime":"2024-06-25T21:00:00:Z","depth":0,"parameterNumber":2,"parameterNumberName":"U-component_of_WINDS"},"data":[0,0,0,0,0,0,0,0,0,0,0,0,0,0,0,0,0,0,0,0,0,0,0,0,0,0,0,0,0,0,0,0,0,0,0,0,0,0,0,0,0,0,0,0,0,0,0,0,0,0,0,0,0,0,0,0,0,0,4.6447,4.6448,0,4.6558,4.6559,4.656,4.648,4.6476,4.6472,4.6469,4.6583,4.6589,4.6596,0,0,0,0,0,0,0,0,0,0,0,0,0,4.6167,4.6173,4.6447,4.6448,4.645,4.6557,4.6559,4.656,4.648,4.6476,4.6471,4.6467,4.6581,4.6589,4.6596,0,0,0,0,0,0,0,0,0,0,0,0,0,4.6284,4.6174,4.6447,4.6423,4.6422,4.6557,4.6559,4.6561,4.6481,4.6476,4.647,4.6465,4.6579,4.6588,4.6597,4.6763,0,0,4.6626,4.6631,0,0,0,0,0,0,0,0,4.6278,4.6295,4.6425,4.6425,4.6424,4.6499,4.6502,4.6629,4.6482,4.6459,4.6469,4.6463,4.656,4.657,4.6603,4.6768,4.6773,4.6627,4.6633,4.6637,4.664,0,0,0,0,0,0,0,4.627,4.6289,4.6491,4.6427,4.6426,4.6406,4.6417,4.6525,4.6538,4.646,4.6455,4.6469,4.6558,4.6594,4.6605,4.6775,4.6627,4.6635,4.6641,4.6645,4.708,4.7085,0,0,0,0,0,0,4.6264,4.6283,4.6487,4.6494,4.6336,4.6416,4.6428,4.648,4.6536,4.654,4.6473,4.6465,4.658,4.6594,4.6609,4.6805,4.6637,4.6646,4.6651,4.7074,4.7081,4.7087,0,0,0,0,0,0,4.6258,4.6283,4.6483,4.6387,4.6411,4.6426,4.6486,4.6485,4.6521,4.6546,4.6548,4.6507,4.6577,4.6595,4.6725,4.6808,4.665,4.6659,4.7067,4.7076,4.7084,4.72,0,0,0,0,0,0,4.625,4.6281,4.6344,4.6389,4.6417,4.6597,4.6491,4.6491,4.6537,4.6527,4.6578,4.6582,4.6574,4.6711,4.6734,4.6818,4.6666,4.706,4.7071,4.7082,4.7189,4.7212,4.7231,0,0,0,0,0,4.6241,4.6373,4.6348,4.6373,4.6496,4.6602,4.6618,4.6606,4.6544,4.6608,4.6624,4.658,4.6795,4.6725,4.675,4.6839,4.7054,4.7068,4.7081,4.7179,4.7207,4.7231,0,0,0,0,0,0,4.6338,4.6378,4.6351,4.6502,4.6549,4.6588,4.6668,4.6636,4.6702,4.6689,4.6672,4.6684,4.6819,4.6842,4.6763,4.7001,4.6915,4.6934,4.6981,4.7008,4.7029,4.702,4.6674,0,0,0,0,0,4.6376,4.6459,4.649,4.662,4.6646,4.6653,4.6699,4.6685,4.6734,4.6754,4.6779,4.6828,4.6906,4.6958,4.7032,4.7192,4.7201,4.7265,4.7286,4.7303,4.732,4.7405,4.7433,4.7131,4.713,4.713,0,0,4.6458,4.649,4.6544,4.6641,4.6676,4.6762,4.667,4.6766,4.6829,4.6768,4.6891,4.6912,4.6966,4.7111,4.7176,4.7133,4.7405,4.732,4.7334,4.7341,4.7421,4.745,4.7475,4.714,4.7138,4.7136,0,0,4.6649,4.6683,4.6794,4.6831,4.6885,4.6889,4.6916,4.696,4.6971,4.7095,4.705,4.7126,4.7262,4.7301,4.7339,4.7546,4.7508,4.757,4.7681,4.7764,4.7788,4.7809,4.7881,4.7908,4.7587,4.7587,4.7587,0,4.6744,4.6872,4.6856,4.6954,4.6998,4.6946,4.7058,4.7095,4.7171,4.7202,4.7154,4.7322,4.7354,4.7507,4.7558,4.7591,4.762,4.7564,4.7785,4.7806,4.7826,4.7895,4.7923,4.7594,4.7593,4.7592,4.7592,0,4.6984,4.7074,4.7157,4.7231,4.7284,4.739,4.7389,4.7445,4.7427,4.7436,4.7562,4.7599,4.7678,4.7714,4.7697,4.7865,4.7837,4.7788,4.7701,4.7862,4.7927,4.7953,4.7604,4.7602,4.76,4.7598,0,0,4.7241,4.7303,4.7334,4.7367,4.7422,4.7491,4.7594,4.7671,4.7719,4.7773,4.7858,4.7974,4.7928,4.7972,4.7959,4.8032,4.8192,4.7974,4.7975,4.8012,4.8378,4.8414,4.8445,4.8168,4.8173,4.8177,4.8373,0,4.7435,4.7613,4.7601,4.7769,4.7851,4.7802,4.7892,4.7935,4.7947,4.8018,4.803,4.8112,4.8046,4.8072,4.8142,4.8158,4.8265,4.8144,4.8246,4.825,4.8234,4.8479,4.8518,4.8701,4.8398,4.8403,4.8406,0,4.7685,4.7747,4.7923,4.7965,4.7999,4.8079,4.8149,4.8218,4.8266,4.8269,4.8317,4.8292,4.8395,4.8307,4.8448,4.8366,4.8407,4.8422,4.8428,4.8437,4.8337,4.8493,4.876,4.8787,4.8446,4.8442,4.844,0,4.7853,4.798,4.8102,4.8131,4.8184,4.8241,4.8266,4.8309,4.8356,4.8417,4.8447,4.852,4.856,4.8616,4.8611,4.8547,4.8755,4.8666,4.876,4.8761,4.8806,4.8803,4.9082,4.8834,4.8834,4.8833,4.8833,0,4.8071,4.818,4.8178,4.8252,4.8373,4.8359,4.8479,4.8497,4.8536,4.8613,4.8576,4.8649,4.8638,4.8712,4.8709,4.8826,4.8845,4.885,4.8848,4.8853,4.8852,4.8879,4.8866,4.8841,4.8839,4.8838,4.8836,0,4.8279,4.8282,4.8411,4.845,4.8462,4.8549,4.8583,4.8653,4.8661,4.8759,4.8781,4.8794,4.8878,4.8879,4.8976,4.8974,4.9117,4.9101,4.9101,4.9097,4.9191,4.9182,4.9496,4.9537,4.9264,4.9266,4.9268,0,4.8417,4.85,4.8548,4.8596,4.8624,4.8704,4.8751,4.874,4.8791,4.8852,4.8915,4.8996,4.906,4.9197,4.9215,4.9289,4.9274,4.9379,4.9285,4.9287,4.9274,4.9269,4.9277,4.9397,4.94,4.9403,4.9405,0,4.8662,4.8659,4.8729,4.88,4.8857,4.8912,4.8963,4.9005,4.8999,4.9059,4.9144,4.9194,4.9292,4.9373,4.9444,4.9469,4.9437,4.9434,4.946,4.9466,4.9462,4.9464,4.915,4.9427,4.9425,4.9423,4.9422,4.9421,4.8839,4.891,4.8954,4.9033,4.907,4.9118,4.9186,4.9202,4.9273,4.9351,4.9341,4.9436,4.9482,4.9574,4.9605,4.9679,4.9643,4.968,4.9689,4.9698,4.9708,4.945,4.9692,4.9692,4.9691,4.9691,4.969,0,4.9081,4.9107,4.918,4.9251,4.9313,4.9276,4.933,4.9385,4.9469,4.9514,4.9577,4.9675,4.9753,4.9777,4.9852,4.9907,4.9894,4.9927,4.9923,4.9929,4.9737,4.9707,4.9937,4.9937,4.9936,4.9936,4.9936,4.9936,4.9214,4.9332,4.9334,4.947,4.9495,4.9587,4.9621,4.9665,4.9701,4.9812,4.9876,4.9891,4.9927,5.0005,5.0074,5.0079,5.0108,5.0148,5.0147,4.9967,4.9942,4.9919,4.989,5.0155,5.0155,5.0332,5.0334,5.0335]},{"header":{"parameterUnit":"m.s-1","parameterCategory":1,"la1":30.2991,"la2":30.254,"lo1":-89.0895,"lo2":-89.0444,"dy":0.0017,"dx":0.0017,"nx":28,"ny":28,"refTime":"2024-06-25T21:00:00:Z","depth":0,"parameterNumber":3,"parameterNumberName":"V-component_of_WINDS"},"data":[0,0,0,0,0,0,0,0,0,0,0,0,0,0,0,0,0,0,0,0,0,0,0,0,0,0,0,0,0,0,0,0,0,0,0,0,0,0,0,0,0,0,0,0,0,0,0,0,0,0,0,0,0,0,0,0,0,0,1.1567,1.1567,0,1.1629,1.163,1.163,1.1632,1.1631,1.163,1.1629,1.1693,1.1695,1.1698,0,0,0,0,0,0,0,0,0,0,0,0,0,1.1449,1.1451,1.1567,1.1567,1.1568,1.1629,1.163,1.1631,1.1632,1.1631,1.163,1.1629,1.1692,1.1695,1.1698,0,0,0,0,0,0,0,0,0,0,0,0,0,1.1504,1.1451,1.1567,1.1576,1.1578,1.1629,1.163,1.1631,1.1632,1.1631,1.163,1.1629,1.1691,1.1695,1.1698,1.1744,0,0,1.171,1.1711,0,0,0,0,0,0,0,0,1.1501,1.1509,1.1574,1.1576,1.1577,1.1621,1.1611,1.1669,1.1632,1.1611,1.1629,1.1628,1.167,1.1675,1.169,1.1747,1.175,1.171,1.1712,1.1714,1.1715,0,0,0,0,0,0,0,1.1497,1.1506,1.1591,1.1575,1.1577,1.1577,1.1584,1.1622,1.1647,1.1613,1.1613,1.1621,1.1671,1.1686,1.1691,1.1751,1.171,1.1713,1.1715,1.1717,1.1848,1.1849,0,0,0,0,0,0,1.1491,1.1503,1.1589,1.1593,1.1536,1.158,1.1588,1.1608,1.1646,1.1651,1.1622,1.162,1.1681,1.1687,1.1693,1.1749,1.1714,1.1717,1.1719,1.1847,1.1848,1.185,0,0,0,0,0,0,1.1489,1.1499,1.1587,1.1548,1.1559,1.1584,1.1607,1.161,1.1626,1.1653,1.1657,1.1633,1.168,1.1688,1.1731,1.1751,1.1719,1.1722,1.1845,1.1847,1.1849,1.1861,0,0,0,0,0,0,1.1486,1.1498,1.1516,1.1548,1.1561,1.1624,1.1608,1.1612,1.1632,1.1631,1.1664,1.1669,1.168,1.1726,1.1735,1.1756,1.1725,1.1844,1.1846,1.1848,1.1859,1.1863,1.1867,0,0,0,0,0,1.1481,1.1517,1.1517,1.1527,1.1584,1.1625,1.1632,1.1644,1.1633,1.1651,1.1669,1.1668,1.1748,1.173,1.1741,1.1763,1.1842,1.1845,1.1848,1.1857,1.1862,1.1867,0,0,0,0,0,0,1.1487,1.1521,1.1522,1.1569,1.1594,1.1625,1.1648,1.1649,1.1678,1.1676,1.169,1.1697,1.174,1.1756,1.1736,1.1809,1.1794,1.1799,1.1797,1.1802,1.1806,1.1801,1.1728,0,0,0,0,0,1.1493,1.1524,1.1552,1.1591,1.1604,1.1624,1.1642,1.1649,1.1676,1.1686,1.1707,1.1732,1.1763,1.1783,1.1813,1.1861,1.1868,1.1881,1.1885,1.1888,1.1893,1.1919,1.1925,1.186,1.186,1.1859,0,0,1.1507,1.153,1.1549,1.1593,1.1613,1.1644,1.1633,1.1666,1.169,1.1691,1.1733,1.1749,1.1779,1.1824,1.1845,1.1838,1.1912,1.1892,1.1894,1.1897,1.1922,1.1928,1.1934,1.1862,1.1861,1.1861,0,0,1.1549,1.1569,1.1604,1.1624,1.1655,1.1668,1.1676,1.1707,1.1717,1.176,1.1761,1.1789,1.1842,1.1863,1.1881,1.1929,1.1929,1.1938,1.1959,1.1984,1.1989,1.1994,1.2011,1.2017,1.1943,1.1943,1.1943,0,1.1562,1.161,1.1621,1.1655,1.1674,1.1677,1.1712,1.1731,1.177,1.1783,1.1775,1.1841,1.1861,1.1912,1.1923,1.1937,1.1947,1.1935,1.1988,1.1992,1.1997,1.2014,1.202,1.1944,1.1944,1.1943,1.1943,0,1.1625,1.1657,1.1682,1.1719,1.1741,1.1775,1.1792,1.1813,1.1817,1.1831,1.1874,1.1898,1.1932,1.1945,1.195,1.1996,1.199,1.1985,1.197,1.2004,1.202,1.2026,1.1945,1.1945,1.1944,1.1944,0,0,1.1672,1.1715,1.1724,1.1741,1.1774,1.18,1.1833,1.1867,1.1885,1.1911,1.194,1.1985,1.1979,1.1999,1.2007,1.2029,1.2065,1.202,1.2021,1.2028,1.2117,1.2121,1.2129,1.2065,1.2067,1.2068,1.2115,0,1.1717,1.1778,1.1789,1.1842,1.1872,1.1875,1.1904,1.1928,1.1941,1.1969,1.1984,1.2015,1.2006,1.2018,1.204,1.2056,1.2084,1.2053,1.2092,1.2094,1.2085,1.2137,1.2142,1.2185,1.2121,1.2122,1.2123,0,1.1779,1.1806,1.1862,1.1891,1.1904,1.1931,1.1963,1.1989,1.2015,1.2024,1.2045,1.205,1.2085,1.2069,1.2117,1.2096,1.2113,1.2123,1.2125,1.2129,1.211,1.2143,1.2199,1.2205,1.2133,1.2132,1.2131,0,1.1807,1.1859,1.1899,1.1913,1.1948,1.1967,1.1982,1.2008,1.2027,1.2055,1.2067,1.2099,1.2116,1.214,1.2153,1.2139,1.22,1.2184,1.2208,1.2207,1.2221,1.222,1.228,1.2231,1.2231,1.2231,1.2231,0,1.1857,1.1891,1.1912,1.1937,1.1975,1.1987,1.2024,1.2039,1.2062,1.2089,1.2093,1.2119,1.2134,1.2162,1.2172,1.2211,1.2218,1.2226,1.2228,1.2226,1.2225,1.2237,1.2234,1.2233,1.2232,1.2232,1.2232,0,1.1896,1.1911,1.1955,1.1985,1.1993,1.202,1.2045,1.2068,1.2082,1.2116,1.2125,1.2146,1.2178,1.2194,1.2234,1.2241,1.2285,1.2285,1.2276,1.2277,1.2299,1.2297,1.237,1.238,1.2324,1.2324,1.2325,0,1.1927,1.1953,1.1985,1.2004,1.2019,1.2049,1.2069,1.2082,1.2102,1.2135,1.2154,1.2187,1.2214,1.2267,1.2285,1.2316,1.2317,1.234,1.2322,1.2318,1.2317,1.2316,1.2318,1.2344,1.2345,1.2345,1.2345,0,1.1979,1.1986,1.2014,1.2045,1.2069,1.2094,1.2118,1.2133,1.215,1.2173,1.2206,1.2227,1.2268,1.2301,1.2333,1.2348,1.235,1.2351,1.2358,1.2356,1.2349,1.2353,1.2285,1.2349,1.2349,1.2349,1.2348,1.2348,1.2015,1.2038,1.2065,1.2096,1.2116,1.2139,1.2162,1.2178,1.2206,1.2241,1.2247,1.2282,1.2308,1.2351,1.2368,1.2396,1.239,1.24,1.2403,1.2405,1.2407,1.2345,1.2402,1.2402,1.2401,1.2401,1.2401,0,1.2068,1.2085,1.2114,1.2148,1.2172,1.2171,1.2198,1.2219,1.225,1.2274,1.23,1.2339,1.237,1.2391,1.2423,1.2441,1.2442,1.2449,1.2448,1.2451,1.241,1.2401,1.2447,1.2447,1.2447,1.2447,1.2447,1.2447,1.2098,1.2138,1.2147,1.2196,1.2213,1.2248,1.2263,1.2284,1.2303,1.2346,1.2372,1.2385,1.2408,1.2441,1.2469,1.2475,1.2486,1.2493,1.2498,1.2459,1.2454,1.245,1.2441,1.2495,1.2496,1.2537,1.2538,1.2538]}]]